Terminal Aerodrome Forecast
Issued by NWS Charleston, WV

Current Version | Previous Version | Graphics & Text | Print | Product List | Glossary On
Versions: 1 2 3 4 5 6 7 8 9 10 11 12 13 14 15 16 17 18 19 20 21 22 23 24 25 26 27 28 29 30 31
000
FTUS41 KRLX 300200 AAA
TAFBKW
TAF AMD
KBKW 300216Z 3002/3024 28009G18KT P6SM -SHRA OVC025
      TEMPO 3005/3008 30012G24KT 5SM -SHRASN BR OVC015
     FM300800 30011G24KT 2SM -SHSN BR OVC010
     FM301100 31011G25KT 3SM -SHSN BR OVC015
     FM301500 31013G27KT 2SM -SHSN BR BKN015
     FM301800 31015G25KT 6SM -SHSN BR BKN025
     FM301900 31015G25KT P6SM -SHSN BKN025=

USA.gov is the U.S. government's official web portal to all federal, state and local government web resources and services.